Regional Weather Roundup
Issued by NWS Portland, ME

Home | Current Version | Previous Version | Text Only | Print | Product List | Glossary On
Versions: 1 2 3 4 5 6 7 8 9 10 11 12 13 14 15 16 17 18 19 20 21 22 23 24 25 26 27 28 29 30 31 32 33 34 35 36 37 38 39 40 41 42 43 44 45 46 47 48 49 50
000
ASUS41 KGYX 280310
RWRGYX
WEATHER ROUNDUP FOR MAINE AND NEW HAMPSHIRE
NATIONAL WEATHER SERVICE GRAY ME
1100 PM EDT MON APR 27 2015

MEZ002-005-006-010-012-015-018-020-021-024-026-027-029-280400-
MAINE

CITY           SKY/WX    TMP DP  RH WIND       PRES   REMARKS
PORTLAND       CLOUDY    49  40  71 N15G23    29.62R
SANFORD        CLOUDY    46  36  66 N13       29.62S
BAR HARBOR     CLOUDY    39  36  87 N23G32    29.61R
WISCASSET      LGT RAIN  45  37  73 VRB7G23   29.63R
ROCKLAND       CLOUDY    43  34  70 N16G30    29.60R
FRYEBURG       CLOUDY    48  36  63 N10       29.65R
LEWISTONAUBURN CLOUDY    45  37  76 N21G35    29.63R
AUGUSTA        LGT RAIN  43  37  79 N12       29.63R
WATERVILLE     CLOUDY    45  34  65 N18G26    29.61R
BANGOR         CLOUDY    41  32  70 N20G31    29.65R
GREENVILLE       N/A     38  31  76 N16G25    29.66R
MILLINOCKET    CLOUDY    44  31  60 N12G24    29.71R
HOULTON        CLOUDY    39  30  70 NE17G24   29.70R
PRESQUE ISLE   CLOUDY    39  30  70 N13G23    29.76R
FRENCHVILLE    CLOUDY    40  31  70 NE13G28   29.78R
CARIBOU        CLOUDY    40  32  73 NE15G24   29.76R
$$

NHZ002-005-008-009-011-012-014-280400-
NEW HAMPSHIRE

CITY           SKY/WX    TMP DP  RH WIND       PRES   REMARKS
PORTSMOUTH     LGT RAIN  47  41  81 N8        29.60R
ROCHESTER      CLOUDY    49  37  63 N10       29.62R
NASHUA         CLEAR     49  37  63 N13       29.64R
MANCHESTER     PTCLDY    49  36  61 N16       29.62R
CONCORD        CLEAR     47  37  68 N9        29.64R
LACONIA        CLOUDY    46  36  66 CALM      29.64R
PLYMOUTH       FAIR      47  39  74 W6        29.68R
BERLIN         CLOUDY    45  34  65 N10G17    29.68R
WHITEFIELD     PTCLDY    42  35  76 CALM      29.69S
JAFFREY        MOCLDY    45  35  68 VRB5      29.66R
KEENE          PTCLDY    46  34  61 N9        29.68R
LEBANON        CLEAR     48  34  58 N10       29.69S
MT WASHINGTON  SNOW      23  23 100 N64G74      N/A  VSB 0   WCI   0
$$

VTZ005-007-008-280400-
VERMONT

CITY           SKY/WX    TMP DP  RH WIND       PRES   REMARKS
ST JOHNSBURY     N/A     46  36  68 MISG      29.70S
MONTPELIER     CLOUDY    45  36  70 N12G22    29.77S
BURLINGTON     MOCLDY    48  41  76 N13       29.78S
$$

MAZ007-012-024-CTZ003-RIZ002-NYZ038-NYZ072-280400-
SOUTHERN NEW ENGLAND AND NY

CITY           SKY/WX    TMP DP  RH WIND       PRES   REMARKS
BOSTON         CLOUDY    47  44  90 N8        29.62S
WORCESTER      MOCLDY    47  35  63 N13       29.63R
NANTUCKET      LGT RAIN  48  42  80 N16       29.56R
PROVIDENCE     PTCLDY    50  38  63 NW8       29.61R
HARTFORD       LGT RAIN  52  38  58 N9        29.67R
ALBANY         DRIZZLE   51  39  63 N10G21    29.75R
NEW YORK CITY  CLOUDY    54  35  48 NW16      29.72R
$$

ANZ081-ANZ082-ANZ150-NHZ014-MEZ023>029-280400-
COASTAL MARINE OBSERVATIONS

STATION/POSITION TIME  TEMP    WIND        PRES    WAVE
                       AIR SEA DIR/SP/G            HT/PER
                 (UTC) (F)     (DEG/KT/KT) (MB)    (FT/S)
$$

.............KEY..............
   WCI - WIND CHILL
   TC  - TEMPERATURE IN CELSIUS
   VSB - VISIBILITY IN MILES
   HX  - HEAT INDEX
   FAIR- INDICATES FEW OR NO CLOUDS BELOW 12,000 FT, WITH NO
         SIGNIFICANT WEATHER AND/OR OBSTRUCTIONS TO VISIBILITY.




USA.gov is the U.S. government's official web portal to all federal, state and local government web resources and services.